#timestamp,LO_Frequency,Hit,StdDev 
1504220415.5,286047000.9,N,1.4
1504220435.4,286046998.6,N,1.3
1504220455.2,286046999.3,N,1.2
1504220475.0,286046996.5,N,1.4
1504220475.9,286046996.5,N,1.6
1504220495.8,286046998.3,N,1.5
1504220515.6,286046998.9,N,1.4
1504220535.4,286046999.6,N,1.4
1504220555.3,286046999.3,N,1.3
1504220575.1,286046999.0,N,1.3
1504220595.9,286046999.4,N,1.3
1504220615.7,286046998.5,N,1.2
1504220635.5,286047000.8,N,1.3
1504220655.4,286046999.9,N,1.3
1504220675.2,286047000.1,N,1.3
1504220695.0,286047000.2,N,1.3
1504220696.0,286047000.2,N,1.2
1504220715.8,286047002.1,N,1.4
1504220735.6,286047000.1,N,1.3
1504220755.5,286047000.6,N,1.3
1504220775.3,286047000.9,N,1.3
1504220795.1,286047000.2,N,1.3
1504220815.9,286047002.7,N,1.4
1504220835.7,286047002.8,N,1.5
1504220855.6,286047002.7,N,1.6
1504220875.4,286046999.8,N,1.6
1504220895.2,286046999.8,N,1.5
1504220915.1,286047002.7,N,1.6
1504220916.0,286047002.7,N,1.7
1504220935.8,286047000.3,N,1.6
1504220955.6,286047000.7,N,1.6
1504220975.5,286047000.6,N,1.6
1504220995.3,286047000.3,N,1.6
1504221015.2,286047000.9,N,1.4
1504221035.9,286047000.6,N,1.2
1504221055.7,286047000.9,N,1.2
1504221075.6,286047001.0,N,1.1
1504221095.4,286047000.3,N,1.1
1504221115.3,286047001.1,N,1.1
1504221135.1,286047001.2,N,1.1
1504221136.0,286047001.2,N,1.0
1504221155.8,286046998.5,N,1.0
1504221175.7,286046999.1,N,1.1
1504221195.5,286046998.4,N,1.1
1504221215.3,286046996.7,N,1.4
1504221235.2,286046997.2,N,1.5
1504221255.0,286046997.3,N,1.6
1504221255.9,286046997.3,N,1.7
1504221275.8,286046997.2,N,1.8
1504221295.6,286046997.4,N,1.8
1504221315.4,286046997.7,N,1.9
1504221335.3,286046997.9,N,1.9
1504221355.1,286046995.0,N,2.0
1504221375.9,286046995.3,N,2.1
1504221395.7,286046995.1,N,2.1
1504221415.5,286046997.2,N,2.1
1504221435.4,286046997.7,N,2.2
1504221455.2,286046996.7,N,2.1
1504221475.1,286046995.1,N,2.0
1504221476.0,286046995.1,N,2.1
1504221495.8,286046995.5,N,2.1
1504221515.6,286046995.6,N,2.1
1504221535.5,286046995.2,N,2.1
1504221555.3,286046993.3,Y,0.0
1504221575.1,286046997.2,P,0.3
1504221595.9,286046997.9,P,0.3
1504221615.7,286046995.3,P,1.1
1504221635.6,286046997.4,N,1.0
1504221655.4,286046997.5,N,0.9
1504221675.3,286046997.7,N,0.8
1504221695.1,286046997.5,Y,0.0
1504221696.0,286046997.5,P,0.1
1504221715.8,286047001.1,P,1.8
1504221735.7,286046999.2,N,1.5
1504221755.5,286046999.5,N,1.4
1504221775.4,286046999.1,N,1.3
1504221795.2,286046996.6,N,1.4
1504221815.0,286046996.5,N,1.5
1504221815.9,286046996.5,N,1.5
1504221835.8,286046996.5,N,1.5
1504221855.6,286046997.0,N,1.5
1504221875.4,286046999.1,N,1.5
1504221895.3,286046999.2,N,1.5
1504221915.1,286046998.7,N,1.4
1504221935.9,286046998.8,N,1.4
1504221955.7,286046998.5,N,1.3
1504221975.5,286046999.6,N,1.3
1504221995.4,286046999.6,N,1.3
1504222015.2,286046997.5,N,1.3
1504222035.1,286046997.8,N,1.3
1504222036.0,286046997.8,N,1.3
1504222055.8,286046995.4,Y,0.0
1504222075.7,286046996.9,P,0.7
1504222095.5,286046998.9,N,0.8
1504222115.3,286046999.4,N,0.9
1504222135.2,286046998.5,N,0.8
1504222155.0,286047000.7,N,1.2
1504222155.9,286047000.7,N,1.3
1504222175.8,286047001.2,N,1.4
1504222195.6,286046998.6,N,1.3
1504222215.4,286046998.2,N,1.3
1504222235.3,286046998.7,N,1.2
1504222255.1,286046999.5,N,1.2
1504222275.8,286046999.2,N,1.1
1504222295.7,286046999.5,N,1.1
1504222315.5,286046999.5,N,1.1
1504222335.4,286046997.0,N,1.2
1504222355.2,286046996.6,N,1.3
1504222375.0,286046999.5,N,1.2
1504222375.9,286046999.5,N,1.2
1504222395.8,286046999.3,N,1.2
1504222415.6,286046999.6,N,1.2
1504222435.5,286046996.5,Y,0.0
1504222455.3,286046998.8,P,0.1
1504222475.1,286046998.9,P,0.1
1504222495.9,286046998.3,P,0.3
1504222515.7,286046998.4,Y,0.0
1504222535.6,286047001.1,P,1.2
1504222555.4,286046999.3,N,1.0
1504222575.2,286046998.8,N,1.0
1504222595.1,286046998.2,N,1.0
1504222596.0,286046998.2,N,1.0
1504222615.8,286046998.9,N,0.9
1504222635.6,286046998.6,N,0.9
1504222655.5,286046998.8,N,0.8
1504222675.3,286046999.2,N,0.8
1504222695.2,286046996.9,Y,0.0
1504222715.0,286046998.4,P,0.3
1504222715.9,286046998.4,P,0.3
1504222735.7,286046998.8,P,0.3
1504222755.6,286047001.1,Y,0.0
1504222775.4,286047000.0,P,0.7
1504222795.3,286047000.9,N,0.9
1504222815.1,286047000.6,N,0.9
1504222835.8,286047001.0,N,0.9
1504222855.7,286047000.0,N,0.8
1504222875.5,286047000.3,N,0.7
1504222895.4,286047000.4,N,0.7
1504222915.2,286047000.3,N,0.7
1504222935.0,286047000.2,N,0.6
1504222935.9,286047000.2,N,0.6
1504222955.8,286046999.7,N,0.6
1504222975.6,286047002.0,Y,0.0
1504222995.5,286047001.9,P,0.9
1504223015.3,286047002.0,N,0.8
1504223035.1,286047002.4,N,0.8
1504223055.9,286047002.2,N,0.8
1504223075.7,286047002.4,N,0.8
1504223095.5,286047002.6,Y,0.0
1504223115.4,286046998.2,P,1.8
1504223135.2,286047001.2,N,1.6
1504223155.1,286047000.6,N,1.4
1504223156.0,286047000.6,N,1.2
1504223175.8,286047000.8,N,1.1
1504223195.6,286047001.0,N,1.1
1504223215.5,286047000.9,N,1.0
1504223235.3,286046999.8,N,1.0
1504223255.2,286047000.1,N,0.9
1504223275.9,286047000.0,N,0.9
1504223295.7,286047000.0,N,0.9
1504223315.6,286047000.1,N,0.8
1504223335.4,286047000.2,N,0.8
1504223355.2,286046999.7,N,0.8
1504223375.1,286047002.6,Y,0.0
1504223376.0,286047002.6,P,1.1
1504223395.8,286047000.0,N,1.2
1504223415.7,286047000.0,N,1.1
1504223435.5,286047001.6,N,1.0
1504223455.3,286047001.9,N,1.0
1504223475.2,286682707.5,Y,0.0
1504223495.0,286047000.1,P,0.5
1504223495.9,286047000.1,N,0.5
1504223515.8,286047000.4,N,0.4
1504223535.6,286047000.3,N,0.4
1504223555.5,286047002.7,Y,0.0
1504223575.3,286047000.0,P,0.2
1504223595.1,286047000.3,N,0.2
1504223615.9,286047000.3,N,0.1
1504223635.7,286047000.4,N,0.1
1504223655.5,286047002.6,Y,0.0
1504223675.4,286047002.3,P,1.0
1504223695.2,286046999.8,N,1.1
1504223715.1,286046999.7,N,1.1
1504223716.0,286046999.7,N,1.0
1504223735.8,286046999.9,N,0.9
1504223755.7,286047000.2,N,0.9
1504223775.5,286047000.5,N,0.8
1504223795.3,286046999.7,N,0.8
1504223845.2,286047000.2,E,nan
1504223855.1,286046999.7,N,0.0
1504223875.9,286047000.3,P,0.3
1504223895.7,286047000.9,N,0.5
1504223915.5,286046998.3,Y,0.0
1504223935.4,286047001.2,P,0.5
1504223955.2,286047000.6,N,0.4
1504223975.1,286046999.9,N,0.5
1504223976.0,286046999.9,N,0.5
1504223995.8,286047000.1,N,0.5
